Torna al catalogo

THORAD DELTA 1 DEB

AttivoSSO
NORAD 8174·DEBRIS·🇺🇸 United States

Lanciato Nov 15, 1974 da Vandenberg Space Force Base

Loading…

Prossimi Passaggi (prossime 24 ore)

TLE

AggiornatoSource: Space-Track

Epoca: Sep 14, 2026, 10:18 UTC

1 08174U 74089AQ  26257.42930656  .00000019  00000-0  40563-3 0  9996
2 08174 101.9650 248.1083 0065307 158.1694   0.5343 12.53457230369415

Traccia THORAD DELTA 1 DEB in tempo reale con AllMySat

Download on the App Store